Powrót do katalogu

KOWSAR-1.5

AktywnyNaukaSSO
NORAD 67264·PAYLOAD·🇮🇷 Iran
Ta nazwa satelity nie została jeszcze potwierdzona przez oficjalne źródła.

Wystrzelony Dec 28, 2025 z Vostochny Cosmodrome

Loading…

Następne Przeloty (najbliższe 24 godziny)

TLE

ŚwieżeSource: Space-Track

Epoka: Sep 14, 2026, 11:36 UTC

1 67264U 25313S   26257.48377979  .00004902  00000-0  20949-3 0  9997
2 67264  97.3949 330.8691 0015837  59.8767 300.4038 15.23207592 39538

Śledź KOWSAR-1.5 w czasie rzeczywistym z AllMySat

Download on the App Store